Starlink 34350

operational
NORAD ID: 64276 Int'l Des: 2025-120 Owner: SPXS Country: US Constellation: starlink
LEOCIRCULAR

About Starlink 34350

Description loading...

Live Position

Loading 3D Globe...

Upcoming Passes

Altitude History

Altitude vs Time

uPlot chart will show altitude changes over time

Two-Line Element Set

1 64276U 25120W 25353.12508557 .00003258 00000-0 12206-3 0 9998
2 64276 53.1582 130.7406 0001661 91.6469 268.4722 15.30207061 31584
Epoch: Dec 19, 2025 • Age: 23 hours

Current Status

Altitude 475.9 km
Velocity 7.63 km/s
Sub-Earth Point 28.49°N, 170.05°E
Launch Date Jun 4, 2025
Age 0.5 years
Type internet

Technical Details

Classification Payload
Mass 575.00 kg
Dry Mass 530.00 kg
Total Mass 575.00 kg
Length 0.30 m
Diameter 4.10 m
Span 29.00 m
Shape Box + pan
Manufacturer SPXS
Bus Type Starlink V2MO
Phase Status In Orbit
Owner/State SPXS/US

Large Constellations

Loading constellations...